156P/Russell-LINEAR (2007)

Japanese version
Home page
Total 6,336 html files since Dec. 4, 1995
Updated on April 4, 2008

---------------------------------------------------------------------

* Profile

* Orbital Elements

The following orbital elements are taken from MPC 51823:

Epoch 2007 June 29.0 TT = JDT 2454280.5
T 2007 June 17.3643 TT                                  MPC
q   1.593111             (2000.0)            P               Q
n   0.1442222      Peri.  357.6776      +0.7998332      -0.5571865
a   3.601206       Node    39.0499      +0.5562459      +0.5483810
e   0.557617       Incl.   20.7480      +0.2255157      +0.6235555
P   6.83
From 42 observations 1986-2001, mean residual 0".6.

* Magnitudes Graph

        m1 = 15.8 + 5 log d + 5.0 log r

---------------------------------------------------------------------

The orbital elements are published at the MPC Ephemerides and Orbital Elements.
The magnitudes graphs are made with Comet for Windows.

---------------------------------------------------------------------

Copyright(C) 1995-2008 Seiichi Yoshida (comet@aerith.net). All rights reserved.